Regional Weather Roundup
Issued by NWS Sioux Falls, SD

Home | Current Version | Previous Version | Graphics & Text | Print | Product List | Glossary On
Versions: 1 2 3 4 5 6 7 8 9 10 11 12 13 14 15 16 17 18 19 20 21 22 23 24 25 26 27 28 29 30 31 32 33 34 35 36 37 38 39 40 41 42 43 44 45 46 47 48 49 50
467
ASUS43 KFSD 202002
RWRFSD

WEATHER ROUNDUP FOR SE SOUTH DAKOTA/SW MINNESOTA/NW IOWA
NATIONAL WEATHER SERVICE SIOUX FALLS SD
200 PM CST TUE FEB 20 2018

NOTE: "FAIR" INDICATES FEW OR NO CLOUDS BELOW 12,000 FEET WITH NO
SIGNIFICANT WEATHER AND OR OBSTRUCTIONS TO VISIBILITY.


SDZ038>040-050-052>070-202100-
SOUTHEAST SOUTH DAKOTA

CITY           SKY/WX    TMP DP  RH WIND       PRES   REMARKS
BROOKINGS      FAIR       9   2  73 NW20        N/A  WCI -10
CHAMBERLAIN    FAIR      11   4  73 W16       30.20R WCI  -6
HURON          FAIR      11   3  70 NW21      30.17R WCI  -8
MADISON        MOCLDY     9   7  92 NW22      30.10R WCI -11
MITCHELL       FAIR      11   4  73 NW20      30.20R WCI  -7
SIOUX FALLS    FAIR      12   4  70 NW20      30.13R WCI  -6
WINNER         FAIR      10   0  63 NW18      30.18S WCI  -8
YANKTON        FAIR      11   5  77 NW20      30.19R HAZE    WCI  -7
$$

MNZ071-072-080-081-089-090-097-098-202100-
SOUTHWEST MINNESOTA

CITY           SKY/WX    TMP DP  RH WIND       PRES   REMARKS
FAIRMONT       FAIR      15   9  76 NW21      30.06R WCI  -2
JACKSON        PTSUNNY   14   7  73 NW15      30.06R WCI  -1
LUVERNE        FAIR      12   3  67 NW16      30.13R WCI  -4
MARSHALL       PTSUNNY   11   4  73 NW21      30.09R WCI  -8
MONTEVIDEO     PTSUNNY   14   5  67 N21       30.08R WCI  -4
PIPESTONE      FAIR      10   3  72 NW20      30.08R WCI  -8
REDWOOD FALLS  FLURRIES  12   6  77 W18G26    30.07R WCI  -6
TRACY          FAIR      12   6  77 NW20      30.09R WCI  -6
WINDOM         CLOUDY    12  -2  52 CALM      30.05R HAZE
WORTHINGTON    PTSUNNY   13   6  74 NW22      30.07R WCI  -6
$$

IAZ001>003-012>014-020>022-031-032-NEZ013-014-SDZ071-202100-
NORTHWEST IOWA

CITY           SKY/WX    TMP DP  RH WIND       PRES   REMARKS
CHEROKEE       FLURRIES  15  10  83 NW12G18   30.13R WCI   1
DENISON        FLURRIES  18  12  79 NW21G28   30.12S WCI   1
ESTHERVILLE    FAIR      15   9  76 W22       30.06R WCI  -3
LE MARS        PTSUNNY   14   7  73 NW16G24   30.17R WCI  -2
ORANGE CITY    CLOUDY    12   9  85 NW16G22   30.13R WCI  -4
SHELDON        PTSUNNY   12   7  79 NW20      30.10R WCI  -6
SIOUX CITY     FAIR      14   6  70 NW26      30.16R WCI  -6
SPENCER        PTSUNNY   17  10  74 NW23      30.10R WCI  -1
STORM LAKE     FLURRIES  14  10  85 NW24G31   30.08R WCI  -5
$$

ABBREVIATIONS USED IN REMARKS
   TC - TEMPERATURE IN CELSIUS
  WCI - WIND CHILL INDEX
   HX - HEAT INDEX
  VSB - VISIBILITY





USA.gov is the U.S. government's official web portal to all federal, state and local government web resources and services.